Tracking 27086 objects as of 22-Mar-2023
HD Live streaming from Space Station
objects crossing your sky now

STARLINK-1483

Track STARLINK-1483 now!
10-day predictions
STARLINK-1483 is classified as:


NORAD ID: 45743
Int'l Code: 2020-038P
Perigee: 553.4 km
Apogee: 555.3 km
Inclination: 53.1 °
Period: 95.6 minutes
Semi major axis: 6925 km
RCS: Unknown
Launch date: June 13, 2020
Source: United States (US)
Launch site: AIR FORCE EASTERN TEST RANGE (AFETR)
Your satellite tracking list
Your tracking list is empty




NASA's NSSDC Master Catalog

Two Line Element Set (TLE):
1 45743U 20038P   23081.19542794  .00001287  00000-0  10527-3 0  9997
2 45743  53.0532  60.5362 0001324  96.6336 263.4803 15.06396052153853
Source of the keplerian elements: AFSPC